Location: Eyeline Observatory
(43.2182°N, 78.8632°W)
Time: 22:48:29
(UTC-05:00)

Vanguard 2 - Pass Details

Date: 01 February 2018
Orbit: 553 x 2939 km, 32.9° (Epoch: 24 February)

Event Time Altitude Azimuth Distance (km) Brightness Sun altitude
Rises 00:45:40 0° 230° (SW) 2,803 - -63.6°
Reaches altitude 10° 00:48:03 10° 214° (SW) 2,028 - -63.6°
Maximum altitude 00:51:41 23° 161° (SSE) 1,580 - -63.4°
Drops below altitude 10° 00:56:26 10° 110° (ESE) 2,744 - -63.2°
Sets 01:00:18 0° 98° (E) 4,109 - -63.1°
